Tracking 19283 objects as of 18-Nov-2018
HD Live streaming from Space Station
objects crossing your sky now

INSAT 2R (ARABSAT 1C)

Track INSAT 2R (ARABSAT 1C) now!
INSAT 2R (ARABSAT 1C) is classified as:


NORAD ID: 21894
Int'l Code: 1992-010B
Perigee: 36,107.6 km
Apogee: 36,382.9 km
Inclination: 12.2 °
Period: 1,459.2 minutes
Semi major axis: 42616 km
RCS: 2.2387 m2 (large)
Launch date: February 26, 1992
Source: India (IND)
Launch site: FRENCH GUIANA (FRGUI)
aabbcc
Your satellite tracking list
Your tracking list is empty




NASA's NSSDC Master Catalog

Two Line Element Set (TLE):
1 21894U 92010B   18321.31406340 +.00000030 +00000-0 +00000-0 0  9995
2 21894 012.1841 031.7379 0032299 217.0678 165.6681 00.98682407096922
Source of the keplerian elements: AFSPC